Regional Weather Roundup
Issued by NWS Upton, NY

Current Version | Previous Version | Text Only | Print | Product List | Glossary On
Versions: 1 2 3 4 5 6 7 8 9 10 11 12 13 14 15 16 17 18 19 20 21 22 23 24 25 26 27
000 ASUS41 KOKX 280208 RWROKX REGIONAL WEATHER ROUNDUP NATIONAL WEATHER SERVICE NEW YORK NY 1000 PM EDT MON MAR 27 2017 NOTE: "FAIR" INDICATES FEW OR NO CLOUDS BELOW 12,000 FEET WITH NO SIGNIFICANT WEATHER AND/OR OBSTRUCTIONS TO VISIBILITY. NYZ071-072-176-178-NJZ106-104-280300- NEW YORK CITY METRO AREA CITY SKY/WX TMP DP RH WIND PRES REMARKS Central Park PTCLDY 48 45 89 CALM 30.03S Wall St Helipt PTCLDY 46 45 93 NE9 30.02R LaGuardia APRT MOCLDY 46 42 86 E7 30.01S Kennedy INTL MOCLDY 47 45 93 E5 30.02R Breezy Point N/A 43 N/A N/A E2 N/A Newark/Liberty MOCLDY 48 44 86 N7 30.01R Teterboro MOCLDY 48 45 89 N3 30.01R $$ NYZ177-179-078>081-280300- LONG ISLAND NEW YORK CITY SKY/WX TMP DP RH WIND PRES REMARKS Jones Beach N/A 43 N/A N/A E5 N/A Matinecock PT NOT AVBL Farmingdale CLEAR 45 43 93 CALM 30.01S MacArthur/ISP MOCLDY 44 43 96 NE3 30.01R FOG Shirley FOG 41 41 100 VRB5 30.03R VSB 1/4 Westhampton CLOUDY 43 42 97 CALM 30.04R FOG East Hampton FOG 41 41 98 N6 30.02R VSB 1/2 Montauk N/A 42 41 96 W5 30.03R $$ NYZ052-065-067-280300- HUDSON VALLEY CITY SKY/WX TMP DP RH WIND PRES REMARKS White Plains PTCLDY 41 39 93 CALM 30.00R Newburgh PTCLDY 41 41 100 CALM 30.01R Montgomery CLOUDY 38 36 92 CALM 29.99R FOG Poughkeepsie PTCLDY 37 36 96 CALM 30.00S Albany CLOUDY 42 37 82 CALM 30.00S $$ NJZ001-105-106-008-010-013-015-019>022-104-280300- NEW JERSEY CITY SKY/WX TMP DP RH WIND PRES REMARKS Newark/Liberty MOCLDY 48 44 86 N7 30.01R Teterboro MOCLDY 48 45 89 N3 30.01R Caldwell PTCLDY 47 44 90 NE5 30.01R Somerville CLOUDY 45 45 100 CALM 29.98S Linden MOCLDY 50 47 90 CALM 30.01R Sussex CLEAR 40 38 93 CALM 30.01R FOG Andover N/A 39 38 96 CALM 30.00R Trenton CLEAR 49 48 97 E5 29.98R FOG Millville CLOUDY 57 54 89 CALM 29.97R Atlantic City CLOUDY 54 48 80 CALM 29.98R Wrightstown CLEAR 49 48 96 E3 29.97R FOG Toms River CLEAR 47 46 97 CALM 30.00R Belmar FOG 47 46 97 CALM 30.01R VSB 1/4 $$ PAZ047>061-062-071-280300- EASTERN PENNSYLVANIA CITY SKY/WX TMP DP RH WIND PRES REMARKS Philadelphia CLOUDY 52 50 93 E8 29.98R Allentown MOCLDY 48 45 89 NE3 29.98S FOG Scranton CLOUDY 50 46 86 E9 29.96R $$ CTZ002-004>006-009-010-012-RIZ004-006-007-MAZ004-011-015-280300- SOUTHERN NEW ENGLAND IN CT CITY SKY/WX TMP DP RH WIND PRES REMARKS Bradley INTL CLOUDY 40 38 93 NE5 30.04S Hartford CLOUDY 40 39 97 CALM 30.04S FOG Danbury CLOUDY 44 43 96 CALM 30.02S Wtrbury/Oxford CLOUDY 39 36 87 CALM 30.02F VSB<1/4 Bridgeport MOCLDY 44 41 89 N9 30.03R FOG Meriden CLOUDY 41 39 93 N5 30.03F FOG New Haven CLOUDY 41 39 93 N8 30.03R Chester NOT AVBL Groton CLOUDY 45 42 89 NW10 30.02R Wilimantic CLOUDY 44 42 93 NW5 30.04R FOG IN RI CITY SKY/WX TMP DP RH WIND PRES REMARKS Providence CLOUDY 42 40 92 N8 30.03R FOG Block Island FOG 43 43 100 NW6 30.02R VSB 3/4 Westerly CLOUDY 47 45 93 NW6 30.03R IN MA CITY SKY/WX TMP DP RH WIND PRES REMARKS Boston CLOUDY 39 37 92 N10 30.04R WCI 32 Worcester FOG 36 35 96 N7 30.01R VSB 1/4 WCI 30 Westfield CLOUDY 38 38 100 CALM 30.03S Provincetown FOG 38 38 100 NW12G21 30.02R VSB 3/4 WCI 30 Nantucket CLOUDY 43 42 97 W8 30.00F FOG $$ ANZ330-335-338-340-345-350-353-355-280300- COASTAL MARINE OBSERVATIONS STATION/POSITION TIME SKY/WX TEMP WIND PRES VSBY WAVE AIR SEA DIR/SP/G HT/PER (UTC) (F) (DEG/KT/KT) (MB) (MI) (FT/S) NY HARB ENTRANCE 0050 45 42 140/ 6/ 6 1015.8 3/ 6 20 S FIRE ISLAND 0150 44 41 120/ 4/ 4 1015.8 4/ 6 GREAT SOUTH BAY NOT AVBL 23 SSW MONTAUK P 0050 44 42 1016.4 3/ 6 15 E BARNEGAT LI 0130 44 N/A 4/ 7 HUDSON CANYON 0050 47 45 200/ 6/ 6 1016.0 4/ 6 KINGS POINT 0130 40 39 1016.2 EXECUTION ROCKS NOT AVBL CENTRAL LI SOUND NOT AVBL EASTERN LI SOUND NOT AVBL ROBBINS REEF 0130 48 40/ 9/ 9 1016.2 $$ >>>>>>>>>>>>>>>>>>>>>>>>>>>> KEY <<<<<<<<<<<<<<<<<<<<<<<<<<< > < > SKY/WX - Sky Condition/Present Weather < > TMP - Temperature in Fahrenheit < > DP - Dew Point in Fahrenheit < > RH - Relative Humidity in Percent < > WIND - Direction (from) and Speed in MPH < > PRES - Mean Sea Level Pressure (inches of Hg) < > WCI - Wind Chill Index < > VSB - VISIBILITY IN MILES < > HX - HEAT INDEX < > TC - TEMPERATURE IN CELSIUS < > VRB - VARIABLE WIND DIRECTION < > < >>>>>>>>>>>>>>>>>>>>>>>>>>>> KEY <<<<<<<<<<<<<<<<<<<<<<<<<<<

USA.gov is the U.S. government's official web portal to all federal, state and local government web resources and services.